#timestamp,LO_Frequency,Hit,StdDev 
1658912415.3,286046990.8,N
1658912435.2,286046988.5,Y
1658912455.0,286046990.6,P
1658912455.9,286046990.6,N
1658912475.7,286046990.1,N
1658912495.6,286046992.3,N
1658912515.4,286046990.3,Y
1658912535.3,286046998.5,P
1658912555.1,286047000.0,N
1658912556.0,286047000.0,N
1658912575.8,286047001.9,N
1658912595.7,286047003.8,N
1658912615.5,286047003.3,N
1658912635.3,286047001.7,N
1658912655.2,286047004.3,N
1658912675.0,286047001.0,N
1658912675.9,286047001.0,N
1658912695.8,286047000.2,N
1658912715.6,286046999.9,N
1658912735.4,286047002.7,N
1658912755.3,286046998.8,N
1658912775.1,286046998.9,N
1658912795.8,286046998.8,N
1658912815.7,286047004.3,N
1658912835.5,286047003.3,N
1658912855.4,286047003.4,N
1658912875.2,286047002.5,N
1658912895.0,286047000.4,N
1658912895.9,286047000.4,N
1658912915.8,286047000.2,N
1658912935.6,286047002.0,N
1658912955.4,286047002.4,N
1658912975.3,286047002.1,N
1658912995.1,286047003.7,N
1658913015.9,286047008.8,Y
1658913035.7,286047008.6,P
1658913055.5,286047007.5,N
1658913075.4,286047004.4,N
1658913095.2,286046999.8,N
1658913115.1,286047000.8,N
1658913116.0,286047000.8,N
1658913135.8,286047002.5,N
1658913155.6,286047003.8,N
1658913175.5,286047003.2,N
1658913195.3,286047002.2,N
1658913215.1,286046999.5,N
1658913235.9,286046999.9,N
1658913255.7,286047000.3,N
1658913275.6,286047000.4,N
1658913295.4,286047002.1,N
1658913315.2,286047003.5,N
1658913335.1,286047004.0,N
1658913336.0,286047004.0,N
1658913355.8,286047001.9,N
1658913375.6,286047003.1,N
1658913395.5,286047002.9,N
1658913415.3,286047005.8,N
1658913435.2,286047003.6,N
1658913455.9,286047003.1,N
1658913475.7,286047003.9,N
1658913495.6,286047006.9,Y
1658913515.4,286047000.9,P
1658913535.2,286046999.2,N
1658913555.1,286046999.3,N
1658913556.0,286046999.3,N
1658913575.8,286046999.5,N
1658913595.7,286046999.2,N
1658913615.5,286046999.0,N
1658913635.3,286047000.6,N
1658913655.2,286047001.1,N
1658913675.0,286047001.2,N
1658913675.9,286047001.2,N
1658913695.8,286046998.4,N
1658913715.6,286046999.0,N
1658913735.4,286047000.3,N
1658913755.3,286046998.2,N
1658913775.1,286046998.2,N
1658913795.8,286047000.2,N
1658913815.7,286047000.3,N
1658913835.5,286047002.2,N
1658913855.4,286047004.8,Y
1658913875.2,286047003.9,P
1658913895.0,286047001.3,N
1658913895.9,286047001.3,N
1658913915.8,286047003.7,N
1658913935.6,286047003.3,N
1658913955.5,286047002.2,N
1658913975.3,286047002.7,N
1658913995.1,286047002.4,N
1658914015.9,286047003.3,N
1658914035.7,286047003.0,N
1658914055.6,286047001.9,N
1658914075.4,286047004.0,Y
1658914095.2,286046997.3,P
1658914115.1,286046991.9,P
1658914116.0,286046991.9,N
1658914135.8,286046992.7,N
1658914155.6,286046991.7,N
1658914175.5,286046997.8,N
1658914195.3,286047002.8,N
1658914215.2,286047007.1,N
1658914235.9,286047003.7,N
1658914255.7,286047002.5,N
1658914275.6,286046998.5,N
1658914295.4,286047003.8,N
1658914315.3,286047007.6,N
1658914335.1,286047003.5,N
1658914336.0,286047003.5,N
1658914355.8,286047004.9,N
1658914375.7,286047007.4,N
1658914395.5,286047003.0,N
1658914415.3,286047005.1,N
1658914435.2,286047004.5,N
1658914455.0,286047005.0,N
1658914455.9,286047005.0,N
1658914475.8,286047001.4,N
1658914495.6,286047001.7,N
1658914515.4,286046999.7,N
1658914535.3,286047000.4,N
1658914555.1,286047003.6,N
1658914575.8,286047005.1,N
1658914595.7,286047001.9,N
1658914615.5,286047004.2,N
1658914635.4,286047001.4,N
1658914655.2,286047000.1,N
1658914675.0,286046999.0,N
1658914675.9,286046999.0,N
1658914695.8,286046998.4,N
1658914715.6,286047000.4,N
1658914735.4,286046998.6,N
1658914755.3,286047002.7,N
1658914775.1,286047003.9,N
1658914795.9,286047000.5,N
1658914815.7,286047001.7,N
1658914835.5,286047003.4,N
1658914855.4,286047004.2,N
1658914875.2,286047001.6,N
1658914895.0,286047001.7,N
1658914895.9,286047001.7,N
1658914915.8,286047003.5,N
1658914935.6,286047003.8,N
1658914955.5,286047004.4,N
1658914975.3,286047002.7,N
1658914995.1,286047002.2,N
1658915015.9,286046998.8,N
1658915035.7,286046998.4,N
1658915055.5,286046999.4,N
1658915075.4,286047000.7,N
1658915095.2,286047000.9,N
1658915115.1,286047001.2,N
1658915116.0,286047001.2,N
1658915135.8,286046998.7,N
1658915185.7,286046998.6,E
1658915195.6,286047000.3,N
1658915215.4,286047002.0,P
1658915235.3,286047004.3,P
1658915255.1,286047000.7,N
1658915275.8,286047000.0,N
1658915295.7,286047005.5,Y
1658915315.5,286047003.0,P
1658915335.4,286047004.3,P
1658915355.2,286047002.9,N
1658915375.0,286047005.3,Y
1658915375.9,286047005.3,P
1658915395.8,286047001.6,N
1658915415.6,286047005.0,P
1658915435.4,286047010.8,Y
1658915455.3,286047003.6,P
1658915475.1,286047004.9,P
1658915495.9,286046999.8,N
1658915515.7,286046999.3,N
1658915535.5,286046997.9,N
1658915555.4,286046995.7,N
1658915575.2,286046997.4,N
1658915595.0,286047004.0,N
1658915595.9,286047004.0,N
1658915615.8,286047003.8,N
1658915635.6,286047000.7,N
1658915655.5,286046998.4,N
1658915675.3,286047001.2,N
1658915695.1,286046998.7,N
1658915715.9,286046998.5,N
1658915735.7,286046995.6,N
1658915755.5,286046995.4,N
1658915775.4,286046996.3,N
1658915795.2,286046998.0,N
1658915815.1,286046996.7,N
1658915816.0,286046996.7,N
1658915835.8,286046999.5,N
1658915855.6,286046997.8,N
1658915875.5,286047000.8,N
1658915895.3,286047001.9,N
1658915915.1,286047004.8,N
1658915935.9,286047006.9,N
1658915955.7,286047004.6,N
1658915975.6,286047007.0,N
1658915995.4,286047006.6,N
